Location: Puketoi
(40.5833°S, 176.0167°E)
Time: 13:40:51
(UTC+00:00)

Cosmos 1300 Rocket - Pass Details

Date: 08 February 2023
Orbit: 600 x 625 km, 82.5° (Epoch: 23 March)

Event Time Altitude Azimuth Distance (km) Brightness Sun altitude
Rises 14:20:06 0° 182° (S) 2,891 7.8 -28.9°
Reaches altitude 10° 14:22:24 10° 176° (S) 1,980 6.9 -28.7°
Enters shadow 14:26:11 46° 122° (ESE) 833 4.5 -28.3°
